Theta_e
283 280 283 285 287 287 286 286 286 285 286 285 284 285 286 283 283 281 283 285 284 285 286 286 286 286 287 287 287 286 286 285 285 287 289 291 292 292 292 293 293 292 291 291 290 289 289 288 288 288 288 287 287 286 286 289 291 291 291 292 292 292 291 291 289 288 287 287 287 287 287 287 286 286 286 285 285 285 285 285 285 284 284 285 284 284 284
282 282 283 285 286 284 284 285 286 287 287 286 286 286 287 286 285 287 285 283 284 286 287 288 290 289 288 288 286 286 287 287 287 288 288 288 290 291 292 293 293 293 292 290 289 289 288 289 289 288 288 288 288 288 288 287 289 289 289 290 290 290 290 288 286 286 286 286 286 286 286 286 286 285 285 284 284 284 284 284 283 283 283 283 284 283 283
280 281 282 283 284 284 283 283 285 286 287 287 287 287 287 287 286 287 286 285 286 288 288 287 290 290 287 287 288 289 288 285 286 287 289 290 291 291 292 293 293 292 291 290 289 289 289 289 289 289 289 288 287 288 288 288 288 287 288 288 288 288 288 286 286 286 286 286 286 286 286 285 284 284 284 284 284 283 283 283 283 283 283 283 282 282 282
276 280 281 281 282 281 280 282 283 284 285 284 285 284 286 284 285 285 284 284 286 286 290 290 289 288 289 291 291 290 288 285 284 286 288 289 290 291 292 292 292 291 290 290 290 290 290 290 289 289 289 288 288 288 288 288 287 287 287 288 288 288 287 286 286 286 286 285 285 285 284 284 284 284 283 283 283 283 282 282 282 282 282 282 282 282 282
275 277 281 280 279 279 277 280 284 286 285 286 286 288 288 289 289 285 283 285 288 289 288 288 287 289 290 290 290 289 289 286 286 287 289 289 290 291 292 292 292 292 292 292 292 292 291 290 290 290 290 289 289 289 288 288 287 287 287 288 287 287 286 285 285 285 285 285 285 284 284 283 283 283 283 283 282 282 282 282 282 282 281 281 281 281 281
272 273 278 278 278 272 278 288 287 287 286 285 284 285 287 288 288 288 290 289 287 286 286 289 290 288 289 291 292 292 293 292 287 286 288 289 290 290 291 292 292 293 293 293 293 293 292 292 291 290 289 290 289 288 288 287 287 287 287 287 287 286 285 285 285 285 285 285 284 284 283 283 282 282 282 282 282 282 281 281 281 281 281 280 280 280 280
272 271 276 277 272 276 286 280 286 290 289 288 288 289 289 289 289 290 290 289 286 288 289 290 291 291 290 287 289 290 289 289 290 289 288 288 289 290 290 290 290 292 293 293 292 290 291 291 289 288 288 288 287 287 287 286 286 287 287 286 286 285 285 285 285 284 284 284 284 283 282 282 282 282 282 281 281 281 281 281 281 281 280 280 279 279 279
271 270 276 271 276 281 281 282 283 286 290 289 288 286 287 287 287 289 289 291 292 292 290 287 287 287 287 286 286 287 287 288 292 290 291 290 289 290 291 291 292 292 292 293 293 293 289 289 289 289 289 287 287 287 285 286 286 286 286 286 285 285 285 284 284 284 284 283 283 282 282 281 281 281 281 281 281 280 280 280 279 279 279 279 279 278 278
274 272 276 278 279 280 285 283 282 285 283 282 285 281 286 290 290 289 290 291 291 291 290 289 289 286 286 286 290 288 288 289 289 291 292 292 292 292 292 291 292 291 290 290 290 289 288 289 288 288 287 287 287 286 285 285 285 285 285 285 284 284 284 284 284 284 284 283 282 282 281 281 281 281 281 280 280 279 279 279 279 279 278 278 278 278 277
273 274 269 269 273 275 282 283 282 288 289 290 289 286 285 290 291 291 290 289 289 290 290 288 287 287 286 287 288 288 291 292 292 289 290 290 290 290 290 289 288 288 289 288 288 290 288 288 288 288 287 287 286 285 285 285 285 284 284 284 284 284 284 284 283 283 283 283 282 281 281 281 281 281 280 279 279 279 279 279 278 278 277 277 277 278 277
272 271 274 273 273 279 280 284 285 288 288 289 287 283 283 287 289 289 290 289 289 290 290 290 286 286 285 287 286 291 291 292 290 291 290 290 290 290 288 288 288 287 288 289 288 288 288 288 288 287 287 287 286 286 285 285 285 284 284 285 284 284 284 283 283 283 282 282 282 281 281 281 281 280 279 279 278 278 278 278 278 278 278 277 277 277 277
276 277 272 276 273 278 281 283 285 288 287 290 287 274 280 285 286 288 289 290 290 290 290 286 285 286 285 287 291 291 290 288 288 289 291 290 289 288 286 285 286 285 284 286 285 287 288 289 287 287 287 287 287 286 285 285 284 285 285 285 285 284 283 282 282 281 281 281 281 281 280 280 279 279 278 277 277 277 277 277 277 277 277 277 276 276 276
276 281 272 269 277 282 280 282 284 286 290 289 280 278 280 286 286 287 289 289 289 289 286 287 286 288 292 294 291 286 285 288 287 285 284 285 284 285 284 285 286 284 285 288 289 288 289 288 287 287 287 287 286 286 285 284 284 286 286 285 283 283 282 281 281 280 280 280 280 279 279 279 278 277 276 276 276 276 275 275 275 275 275 275 274 274 275
279 279 279 277 277 281 285 279 285 288 288 276 280 285 284 286 284 282 289 288 288 287 287 287 290 291 291 290 285 284 284 285 283 282 281 282 283 282 281 282 282 284 283 284 285 285 284 286 286 286 286 286 286 285 284 284 286 285 284 283 282 281 281 280 280 279 279 278 278 278 277 277 276 275 274 274 275 274 274 274 274 273 273 274 274 274 274
271 268 276 271 274 282 286 285 284 284 285 286 285 282 284 285 286 285 284 286 286 287 286 287 289 289 288 286 287 287 286 284 286 286 283 283 284 284 284 284 282 282 284 284 284 283 283 284 285 286 286 286 286 285 284 285 284 282 282 281 280 280 279 278 277 277 276 276 276 276 275 275 274 273 273 272 272 273 273 273 273 273 273 273 273 273 273
280 278 276 278 285 285 288 289 286 288 287 283 286 287 289 283 283 285 286 286 285 285 288 286 286 286 286 285 284 284 283 283 283 281 281 281 281 280 280 281 281 280 283 282 282 281 282 284 284 285 286 285 285 284 284 281 280 280 280 279 279 278 277 276 275 274 274 274 274 274 273 273 273 272 272 272 272 272 273 273 273 273 273 273 272 272 272
280 281 284 285 284 288 289 291 290 293 292 284 285 289 289 287 284 283 285 289 286 284 286 286 285 284 284 287 285 285 286 285 284 284 284 283 283 281 281 281 279 280 283 282 281 279 280 282 283 284 285 286 284 284 282 280 280 279 278 278 277 276 275 274 274 273 272 272 272 272 272 273 273 272 271 272 272 272 273 274 274 273 273 272 272 272 271
284 284 285 283 280 282 287 285 282 291 293 286 283 285 289 286 287 285 288 287 286 285 284 286 283 284 284 284 284 284 282 282 282 281 281 280 279 278 279 279 279 278 278 277 279 280 278 279 282 282 283 284 284 283 278 279 279 279 278 277 276 275 274 273 273 272 271 270 270 271 271 272 273 273 273 273 273 273 273 273 273 273 272 271 271 271 271
285 282 289 285 285 284 286 289 285 282 286 287 284 284 286 288 286 286 286 287 286 285 284 286 287 286 284 284 283 282 282 282 282 281 282 281 279 278 277 278 277 277 277 279 279 279 280 278 279 279 279 278 279 278 278 278 278 278 277 276 275 274 273 273 272 272 272 271 271 270 270 270 271 272 273 274 273 273 273 272 272 272 271 270 270 270 269
285 286 285 283 285 285 287 287 285 288 288 284 283 283 282 282 282 284 285 281 282 282 284 285 286 286 283 283 285 283 283 283 282 281 281 279 278 277 276 275 275 275 276 278 278 278 280 278 277 277 277 277 276 277 277 278 277 277 276 275 275 273 273 272 272 271 271 272 271 271 270 271 271 272 273 273 273 273 272 272 272 271 271 270 270 270 270
284 283 280 281 285 287 285 284 284 285 286 288 287 284 282 282 284 283 281 281 282 283 286 282 283 284 283 283 284 283 282 281 280 280 279 278 278 276 276 274 274 279 277 277 278 278 278 276 275 276 275 274 275 277 277 276 276 276 275 274 274 272 272 272 271 271 271 271 271 271 271 271 272 273 272 273 273 273 273 273 273 273 272 272 271 272 271
283 285 285 283 282 280 285 286 288 289 286 285 285 282 282 282 283 283 284 284 281 281 281 281 282 285 285 281 280 281 281 280 280 278 277 276 276 275 274 273 273 274 274 277 276 277 276 273 274 274 273 272 273 275 276 276 276 276 274 273 272 272 271 271 271 270 270 270 270 270 271 271 270 270 272 274 273 272 271 273 274 275 275 272 272 272 271
284 288 284 288 290 289 285 289 288 285 281 283 285 285 287 285 283 283 284 284 285 285 281 279 281 282 282 281 280 280 279 279 278 278 277 276 276 276 273 273 272 274 274 273 273 273 273 272 273 273 272 272 273 274 275 276 276 276 274 273 272 272 271 271 271 271 270 270 270 270 271 271 271 270 271 273 275 274 274 275 276 276 276 276 276 275 272
285 283 286 287 288 287 285 281 283 283 281 284 284 282 281 282 281 280 281 282 283 282 281 280 279 281 279 278 279 279 278 277 277 276 276 276 276 275 273 274 274 273 272 272 273 274 272 272 272 272 271 271 272 273 274 275 275 275 274 274 273 272 272 272 272 271 271 271 270 270 270 270 271 271 271 271 272 275 276 276 277 277 277 277 276 276 275
285 282 280 279 280 279 279 278 278 278 279 281 283 282 281 280 279 280 281 280 281 281 281 281 280 278 279 277 277 278 279 277 276 276 275 275 275 274 273 272 272 273 275 274 273 272 271 271 271 270 271 270 270 271 273 274 275 274 274 274 274 273 272 271 271 271 270 270 270 270 269 270 271 272 272 271 270 270 274 277 278 278 278 277 277 277 276
281 280 280 280 280 280 279 281 282 280 278 279 279 278 279 280 280 280 280 280 279 278 280 279 280 279 278 278 276 276 277 276 275 275 274 274 273 273 273 274 274 273 272 272 272 271 271 271 271 270 270 269 269 271 271 273 274 274 274 273 273 273 272 271 271 270 270 270 269 270 270 270 271 272 272 272 272 271 271 272 273 275 276 277 276 277 277
282 283 285 285 282 282 282 283 285 281 278 279 283 280 278 278 278 278 276 275 275 275 276 276 277 276 274 275 275 275 277 274 273 274 273 273 273 275 275 273 272 271 270 270 270 270 271 269 269 268 269 268 268 268 269 271 272 272 272 272 271 270 269 269 270 270 270 270 270 270 270 270 271 271 271 271 271 271 271 270 269 268 269 271 274 276 275
282 279 280 283 282 283 282 281 281 279 279 280 280 278 276 276 278 279 279 279 278 274 274 272 275 276 278 276 274 274 273 273 275 273 273 274 273 272 272 271 270 269 269 269 269 269 269 268 268 267 269 267 267 266 267 269 270 271 271 271 270 270 269 269 269 269 269 269 270 269 269 269 270 270 270 270 270 270 270 270 269 267 266 267 267 273 274
279 279 278 282 285 282 281 279 279 280 278 276 276 277 278 279 275 277 276 277 276 274 279 277 272 273 276 275 274 274 273 273 272 272 273 272 272 270 269 268 268 268 269 268 268 267 268 269 269 269 269 267 267 267 268 268 269 270 269 270 269 269 269 269 269 268 268 268 269 269 270 269 268 268 268 268 268 268 268 268 266 266 266 264 263 264 270
278 279 281 282 282 283 283 282 281 280 278 277 278 276 276 278 278 277 277 276 275 277 276 274 275 275 272 273 272 274 274 273 273 272 272 271 270 269 268 268 267 267 268 268 269 268 269 269 269 269 270 267 267 266 267 267 268 269 269 269 269 269 268 267 267 267 267 268 268 269 268 267 267 267 266 267 266 266 266 266 265 264 263 264 265 264 263
280 281 282 282 283 283 284 283 282 280 279 277 276 277 277 278 278 277 277 275 274 274 274 274 273 272 271 273 274 273 272 272 271 271 270 269 269 269 270 271 273 274 273 273 271 270 269 269 269 270 269 266 266 265 266 266 267 266 266 267 266 268 268 268 268 267 267 266 267 267 267 266 266 266 265 265 265 265 265 265 264 264 264 264 264 263 263
282 281 281 280 280 281 281 281 281 280 279 278 279 280 281 282 283 282 280 276 277 276 274 272 272 274 274 273 270 269 270 270 268 268 267 268 268 268 269 271 274 274 273 271 271 270 269 268 268 270 265 265 265 264 265 265 265 266 266 266 266 266 267 268 267 267 266 266 266 266 265 265 265 265 265 265 265 265 264 264 264 264 263 263 263 263 262
284 283 281 280 280 280 280 279 281 280 278 279 281 282 282 282 283 283 283 282 279 277 277 277 277 277 276 273 273 272 270 267 266 268 268 269 270 270 270 270 271 271 271 269 269 270 270 270 271 269 266 265 264 264 264 265 265 266 266 266 266 265 265 267 267 266 265 265 266 266 266 265 266 265 265 266 265 265 264 264 264 263 262 262 262 263 262
284 283 284 282 284 283 282 282 279 279 280 279 279 279 280 280 280 281 281 280 279 279 279 279 278 277 275 275 273 272 271 272 275 275 274 274 273 272 270 269 270 269 270 268 267 268 269 271 271 270 268 266 265 264 264 264 265 265 266 265 265 265 265 266 266 266 265 265 266 266 266 265 265 265 265 265 265 264 263 264 264 263 262 262 262 261 263
284 284 283 284 284 285 285 284 281 280 281 280 280 279 279 279 279 279 278 278 278 278 277 277 276 276 274 273 272 271 272 276 278 278 277 276 274 272 269 269 268 268 268 268 268 269 270 270 271 269 266 265 264 264 264 264 265 265 265 265 265 265 265 265 265 265 265 265 266 265 265 265 265 265 265 265 264 264 263 263 263 263 262 261 261 260 261
280 280 279 280 281 281 281 281 282 282 281 281 280 278 277 277 277 276 277 277 276 276 275 276 274 272 272 273 273 272 273 274 275 275 275 275 273 268 268 268 268 268 268 269 270 270 269 269 266 265 265 264 264 263 264 264 264 265 265 265 265 265 265 266 266 266 266 266 265 265 265 265 265 264 264 264 264 263 263 263 263 263 262 262 261 260 261
278 280 279 278 277 276 277 277 277 277 277 276 275 275 274 272 273 273 274 274 273 273 273 272 271 271 273 274 273 272 272 273 273 273 273 270 266 267 267 267 266 267 267 269 271 270 269 269 265 264 265 265 264 263 263 263 264 264 264 265 265 265 265 265 266 266 265 265 265 265 264 264 264 264 264 264 264 263 263 263 263 263 262 262 262 261 261
273 273 274 274 274 274 273 272 273 273 272 271 270 270 271 270 268 268 268 267 267 267 267 270 272 271 271 269 269 270 271 271 271 271 269 268 266 267 265 265 267 266 266 271 266 264 265 265 263 263 264 264 264 263 263 262 263 263 263 263 264 264 265 265 265 265 265 265 264 264 264 264 263 263 263 263 263 263 263 263 263 262 262 261 260 261 261
273 271 270 269 269 269 269 268 267 266 269 272 268 264 264 265 263 262 264 263 262 263 264 265 265 267 268 269 271 270 269 269 267 266 265 266 263 265 270 271 270 270 271 264 263 263 262 263 262 263 263 264 263 262 262 262 262 262 261 261 262 262 263 263 263 263 264 264 264 263 263 264 264 263 263 263 263 263 263 263 263 262 261 261 260 260 260
269 268 268 267 268 266 267 264 263 262 261 262 264 261 259 260 261 261 260 261 261 261 260 261 262 265 264 264 264 266 265 264 264 264 264 264 261 261 264 266 267 267 267 265 264 261 261 262 261 261 262 261 261 261 261 261 261 261 261 261 261 261 262 262 263 263 263 263 262 262 262 262 263 263 263 263 263 263 263 262 262 262 261 261 260 260 260
266 265 264 265 263 262 262 262 260 257 256 256 256 256 257 258 258 259 260 259 258 258 258 257 259 260 259 260 260 260 259 260 259 259 260 260 260 260 263 268 262 260 261 263 262 260 261 260 259 260 260 261 260 261 260 261 261 260 260 260 261 261 261 261 262 262 262 262 262 262 262 262 262 263 262 263 263 263 262 262 262 262 261 260 260 260 260
262 262 262 261 260 259 258 258 257 258 256 254 254 254 254 256 257 258 258 257 256 257 255 256 259 258 257 256 256 257 257 257 257 256 257 263 264 262 264 267 260 257 261 261 261 261 259 258 259 261 260 260 259 261 261 260 260 260 260 260 260 261 261 261 261 262 262 262 262 262 262 263 263 263 263 263 262 262 262 262 262 261 261 261 261 260 260
258 259 259 257 256 255 252 254 255 254 254 254 253 252 252 252 252 254 254 255 254 255 255 254 256 256 255 255 255 257 257 256 256 256 257 259 261 263 267 267 259 256 261 259 258 257 257 257 258 258 260 260 259 260 261 260 258 259 259 259 260 260 260 261 261 261 262 262 262 262 262 262 263 263 263 263 262 262 262 261 261 261 261 261 261 260 260
253 255 255 255 253 252 252 253 253 253 254 254 254 251 251 251 251 251 252 254 254 254 254 255 255 255 256 255 256 258 258 257 257 258 258 261 261 259 259 260 260 258 260 258 256 256 256 256 255 259 260 260 260 260 260 258 258 258 258 259 259 259 260 260 260 261 261 261 262 262 262 262 262 263 263 262 261 261 262 261 261 261 260 260 260 260 259
253 253 253 252 251 253 253 253 253 254 254 254 252 252 252 252 252 250 251 253 254 254 254 255 255 256 255 254 254 254 256 255 254 254 257 260 263 262 256 256 255 256 257 259 256 256 255 255 258 259 259 260 260 260 259 257 258 258 258 258 258 259 259 259 260 260 261 261 261 262 262 262 263 263 263 262 261 261 261 261 260 261 260 259 259 258 258
252 251 251 253 252 251 251 251 252 252 253 254 253 254 252 251 251 250 249 250 250 252 251 253 253 254 251 251 252 253 253 254 254 254 257 259 261 259 256 257 256 257 258 258 255 255 255 258 259 259 259 259 260 259 258 258 257 257 257 257 258 258 258 259 259 260 260 261 261 261 262 262 262 262 263 262 262 262 261 261 260 260 260 259 259 258 258
251 250 250 249 248 248 247 248 250 252 250 252 252 252 252 252 250 250 249 248 247 248 248 248 248 249 249 248 249 252 254 255 256 255 254 252 253 254 255 256 256 257 257 256 256 255 255 257 258 259 259 259 259 258 257 257 256 257 257 257 258 258 258 259 259 259 260 260 260 261 261 261 262 262 262 261 261 261 261 260 259 259 259 259 258 258 257
248 248 248 247 247 247 247 248 249 249 250 249 249 249 249 248 249 249 249 248 248 247 248 247 248 247 247 245 245 247 249 250 254 256 252 251 253 253 255 254 255 256 257 257 257 257 258 258 258 259 259 259 259 258 257 257 257 257 257 257 258 258 259 259 259 259 259 259 260 260 260 260 261 261 261 261 261 260 260 259 259 258 258 257 257 257 257
246 246 247 246 246 248 249 249 249 250 248 248 247 248 249 248 247 248 249 249 248 250 250 249 248 248 248 249 249 247 247 249 251 253 252 253 252 253 253 255 255 256 256 256 255 255 257 258 258 259 259 258 258 258 258 258 258 258 258 258 258 258 259 259 259 259 259 259 260 260 260 260 261 260 260 260 259 259 259 258 258 258 258 257 257 257 257
247 247 248 249 249 249 248 248 247 247 247 248 247 248 247 247 249 249 249 249 249 250 249 248 247 248 248 249 247 247 245 246 248 249 250 251 250 252 253 253 254 255 256 255 253 255 256 257 257 258 258 257 258 259 259 259 259 258 258 258 258 259 259 259 259 259 260 260 260 260 260 260 260 260 259 259 259 259 259 258 258 258 257 257 257 257 256
247 247 247 248 246 246 245 245 246 246 245 245 245 246 248 247 247 249 248 249 248 249 250 249 247 248 247 245 247 246 246 245 247 251 251 251 251 253 253 253 253 254 254 254 253 253 252 251 252 255 256 256 257 257 258 258 258 258 258 258 258 259 259 259 259 259 260 260 260 260 260 259 260 259 259 259 258 258 258 257 257 257 256 256 256 256 256
243 242 244 243 243 243 243 243 243 243 243 244 244 245 246 247 247 247 246 251 247 248 248 249 250 247 247 247 247 247 246 247 248 249 251 251 251 249 250 253 251 251 251 250 251 250 249 251 254 255 256 255 255 255 257 257 258 258 258 258 258 258 258 258 258 258 259 259 259 259 259 259 259 258 258 258 258 257 257 257 256 256 256 256 256 256 256
Wind_Speed
3 1 7 10 9 12 10 14 16 15 15 13 18 23 10 6 12 17 7 11 9 7 7 6 8 7 5 7 6 5 3 0 1 1 2 5 8 7 7 9 7 7 8 8 8 8 8 5 7 6 5 4 3 3 4 5 6 6 6 7 7 7 7 8 7 7 6 6 6 7 8 8 8 8 7 7 7 7 6 6 6 7 7 9 9 9 7
4 1 7 11 13 6 5 11 14 18 18 22 24 21 16 17 17 13 4 5 10 5 6 7 8 8 6 3 1 1 2 0 1 3 4 5 6 7 8 9 9 8 9 7 8 8 7 9 8 7 6 6 5 6 6 5 6 5 6 6 7 7 7 7 6 6 7 6 6 7 8 8 8 8 7 7 7 7 7 7 7 7 7 7 8 9 9
4 1 3 3 6 9 9 9 14 17 21 23 23 19 17 16 17 14 8 13 19 6 8 6 9 8 2 4 6 6 6 4 4 4 5 8 8 9 9 8 9 8 7 8 7 9 11 11 11 10 9 8 7 7 7 8 7 6 6 7 6 7 7 6 7 7 7 7 7 8 7 8 7 8 8 8 8 8 7 7 8 7 8 9 8 7 8
3 0 4 3 3 1 3 8 13 19 21 18 13 9 7 7 17 8 9 17 18 3 10 10 4 0 4 10 11 8 6 5 5 6 8 8 9 9 10 10 7 7 10 10 12 13 13 12 11 11 10 10 9 10 9 9 8 7 8 8 9 8 8 8 8 9 8 9 9 8 8 9 9 8 8 8 8 9 9 9 7 7 8 8 8 7 7
4 1 5 7 4 2 5 12 25 22 10 11 6 12 15 20 14 9 14 22 4 10 6 7 4 10 12 11 8 7 7 6 7 9 10 10 10 10 10 10 11 11 12 13 15 14 10 11 13 13 10 10 12 12 12 10 9 10 10 9 9 9 8 9 9 9 9 10 10 10 10 9 9 8 9 9 9 9 9 8 8 9 8 8 8 7 8
4 1 7 5 5 5 16 13 4 11 16 13 8 13 18 16 9 14 17 9 3 5 7 12 14 11 10 11 12 10 10 8 8 10 9 10 10 9 9 10 11 11 9 9 11 13 12 12 11 7 9 12 9 7 8 8 10 10 10 9 9 9 10 10 10 10 10 10 11 10 10 9 9 9 9 10 8 7 8 7 8 8 7 9 7 7 7
5 4 7 6 7 16 13 4 6 16 12 14 23 24 18 19 19 20 16 10 5 9 11 12 9 9 8 6 8 10 9 7 8 10 12 12 10 12 12 9 9 11 12 11 9 7 12 11 7 8 8 5 5 6 7 8 7 9 8 9 8 9 10 10 10 10 10 10 10 10 9 9 9 9 9 8 8 7 7 8 9 9 9 8 7 7 7
5 4 8 7 18 7 3 1 1 5 12 14 14 13 11 8 9 15 19 21 15 12 10 6 6 5 6 5 8 8 6 6 10 10 9 10 10 11 11 12 12 12 13 15 14 12 2 5 7 8 8 7 8 7 5 6 6 6 7 7 8 7 9 9 9 9 10 10 9 9 9 9 9 9 8 9 9 7 6 6 5 6 5 6 8 7 6
8 5 9 12 6 8 9 5 3 8 8 6 11 9 15 17 16 16 18 18 11 11 9 9 7 1 1 5 9 0 7 12 10 11 10 10 12 11 11 9 11 7 5 5 5 3 6 7 8 9 8 8 8 8 8 7 8 7 6 7 7 8 8 9 9 9 10 11 11 11 10 10 10 9 10 8 7 6 8 7 8 7 7 5 5 7 7
6 8 2 2 6 12 19 2 3 6 8 11 10 9 13 10 15 16 17 13 8 11 13 8 7 2 2 12 9 5 13 16 13 7 9 10 9 8 9 6 5 5 5 4 5 7 7 9 9 8 9 10 10 10 10 9 10 10 9 10 10 10 11 11 11 10 10 11 12 11 11 11 11 9 7 6 7 7 10 10 8 7 7 7 5 5 7
5 3 8 8 11 16 2 8 9 10 7 12 8 4 17 5 12 10 11 12 11 14 15 12 3 2 8 12 2 9 13 11 7 10 11 12 12 9 7 6 6 5 5 6 6 6 8 10 10 10 11 12 12 12 11 11 11 12 13 12 13 14 12 10 9 9 9 8 9 10 11 10 9 10 9 9 6 5 5 7 8 7 6 8 7 6 6
8 10 7 11 5 6 4 7 8 11 8 13 9 1 16 2 10 10 14 15 16 16 12 3 5 8 9 10 12 9 10 6 7 7 10 9 8 9 5 5 5 4 4 5 4 7 11 12 10 12 12 12 12 12 11 10 11 13 14 14 11 8 8 8 8 7 7 8 8 9 10 8 7 7 6 7 7 7 6 6 7 6 6 7 8 7 6
6 8 4 3 7 5 5 7 6 10 11 12 8 20 6 6 7 9 9 12 10 9 6 9 8 12 14 13 6 1 1 1 5 5 4 5 3 6 5 5 2 4 5 7 10 12 9 8 10 11 12 12 12 11 11 11 15 16 12 9 9 10 9 10 9 9 8 9 10 8 7 9 8 7 6 7 7 7 8 6 7 7 7 7 8 7 6
13 12 11 10 6 7 12 1 11 13 10 6 18 5 2 9 6 4 10 10 10 8 11 10 11 10 10 7 1 3 2 4 4 3 3 3 3 1 1 3 3 4 4 4 2 1 2 7 9 10 11 12 10 10 11 15 17 8 7 9 8 9 10 10 9 8 8 7 7 8 8 9 10 8 5 6 7 8 7 7 8 8 6 6 7 7 5
6 4 6 0 10 7 14 14 4 4 9 12 7 3 0 4 8 10 6 7 7 9 7 9 10 10 7 6 8 7 6 5 7 6 5 4 5 5 2 1 2 3 4 5 5 4 4 7 8 9 10 11 10 10 14 13 5 6 7 7 8 7 7 7 6 6 6 7 7 6 7 7 9 9 7 7 6 7 8 8 9 9 7 7 7 6 5
13 13 13 12 10 8 16 22 14 14 10 4 10 8 7 2 5 8 8 8 8 8 9 9 9 10 9 6 5 5 5 7 6 4 5 4 4 4 3 2 3 3 4 3 4 4 5 6 8 9 12 11 9 10 12 5 7 7 7 7 7 7 7 7 7 6 6 6 6 6 7 8 8 9 9 7 7 7 7 8 8 8 6 6 6 6 5
8 10 12 5 4 15 14 12 7 17 16 5 8 10 9 8 6 5 5 11 8 10 10 8 8 5 7 10 5 5 8 6 7 8 7 6 5 4 4 4 2 3 5 5 5 4 4 7 7 9 9 12 11 13 7 8 9 10 10 10 10 9 9 8 8 7 7 7 7 7 7 9 10 9 9 9 9 5 7 6 7 8 7 6 7 6 5
4 6 2 2 0 1 10 2 1 12 17 7 4 6 8 6 7 11 10 8 8 8 7 7 4 6 6 6 6 6 5 4 5 5 4 4 2 1 1 1 2 3 2 3 5 5 4 5 6 6 7 8 12 8 6 7 9 10 11 12 11 11 10 9 10 9 10 7 7 7 7 6 7 8 11 10 9 8 6 6 7 8 8 7 7 6 4
9 9 13 8 5 2 8 11 1 2 3 6 5 4 5 7 8 9 7 8 8 8 9 10 10 9 6 6 6 5 4 6 6 6 7 5 2 3 3 2 3 2 4 5 6 6 7 5 6 5 6 5 5 6 9 8 9 10 11 11 11 10 11 10 9 10 11 10 9 7 6 5 5 6 6 7 8 9 7 8 7 7 7 9 9 5 4
12 13 6 4 5 4 7 8 5 3 5 4 5 4 1 1 3 4 6 3 3 6 7 10 9 9 5 5 7 5 7 7 5 6 6 4 1 1 2 2 3 3 4 5 6 6 7 5 5 5 5 5 6 8 8 9 9 11 11 11 12 11 11 9 9 9 9 10 11 9 8 8 8 7 6 6 9 11 11 11 10 9 8 9 10 9 9
6 3 2 2 7 1 3 3 5 6 6 9 9 6 3 3 4 3 2 2 3 7 6 3 5 5 6 8 6 5 4 4 4 3 3 4 4 3 3 4 5 7 6 6 6 6 6 4 5 5 5 4 6 8 9 9 10 12 11 9 8 8 8 8 8 7 7 8 8 9 8 6 4 4 8 8 7 5 1 2 5 10 11 8 7 7 7
8 14 10 9 5 3 7 9 14 15 9 5 5 4 3 4 5 4 5 1 1 1 0 2 4 6 3 2 2 4 3 1 1 3 3 3 3 3 3 3 4 5 5 6 5 6 4 4 4 5 5 4 5 6 8 9 10 12 11 10 8 9 8 8 8 8 7 8 7 8 9 9 8 4 3 3 2 6 6 5 5 4 6 6 8 8 7
13 12 6 12 13 9 6 10 9 6 5 6 7 11 10 7 3 5 5 4 0 0 2 1 2 0 1 1 1 2 3 3 1 3 4 4 4 4 3 3 4 5 4 3 2 3 3 3 4 5 5 5 6 6 8 9 10 11 11 10 9 9 10 10 11 10 9 9 8 8 8 9 8 9 6 4 6 6 6 7 8 10 9 7 12 10 7
4 1 8 11 8 9 3 3 6 7 5 7 6 2 2 4 4 4 3 2 3 2 1 1 1 2 1 2 3 2 3 2 1 1 2 2 3 2 2 3 3 3 3 3 5 6 4 4 4 4 5 5 6 6 7 8 9 10 11 11 11 11 11 9 10 10 9 9 9 9 8 9 10 9 9 8 5 6 9 8 9 10 10 12 13 12 11
4 1 3 3 4 5 3 4 3 3 4 5 6 4 5 5 3 4 5 4 2 4 4 3 1 2 2 2 3 2 1 1 0 1 1 1 1 2 2 2 4 6 8 6 3 2 4 4 4 4 5 5 4 5 6 7 9 10 11 11 11 10 10 10 10 10 9 9 10 10 12 12 10 9 11 11 11 9 5 9 11 12 12 12 13 12 12
9 7 6 5 5 5 4 4 4 2 3 4 5 2 1 5 7 5 5 5 4 2 4 3 3 1 1 2 1 1 0 1 0 2 3 2 2 1 4 8 7 3 3 3 4 4 4 5 5 4 4 4 5 6 6 8 8 10 11 11 9 9 10 11 11 10 10 10 11 12 12 13 12 11 11 11 12 12 11 8 8 8 10 12 12 12 12
8 9 13 10 6 2 1 5 6 4 3 2 7 7 5 5 6 6 4 4 4 4 4 2 2 1 2 1 2 1 0 1 2 2 2 3 4 6 5 3 4 4 4 4 4 4 4 3 3 4 5 5 4 4 5 5 6 7 7 7 6 7 10 9 9 10 9 9 10 10 10 11 10 10 10 8 9 12 13 15 14 12 10 8 11 13 9
6 2 2 8 7 7 4 1 5 5 5 7 7 7 5 5 6 6 6 5 4 3 3 3 3 2 1 1 2 2 2 1 0 0 1 4 4 2 2 3 4 4 3 3 2 1 2 2 3 4 7 4 4 4 4 5 6 6 7 7 7 6 7 9 8 8 8 8 9 10 11 11 9 7 6 8 9 9 7 7 8 9 7 5 4 6 11
3 4 3 3 7 6 7 7 7 7 5 4 4 5 6 7 4 6 4 3 1 1 1 0 1 1 1 0 1 1 1 0 1 2 4 3 2 2 1 2 2 2 3 2 2 3 4 5 6 7 8 5 6 7 6 7 8 8 8 8 8 7 7 8 8 7 6 6 7 8 7 7 7 6 6 5 4 5 5 7 7 7 8 8 5 2 6
2 2 6 8 9 11 12 8 7 5 6 4 6 3 2 7 6 2 3 2 1 1 1 0 0 0 0 1 2 3 3 3 3 2 2 3 1 2 3 3 4 2 1 1 4 4 5 6 6 9 9 6 7 7 7 7 8 7 7 7 8 8 8 7 7 7 6 8 7 7 8 7 6 7 7 7 7 8 7 8 8 9 10 8 7 9 9
5 6 8 7 7 4 8 8 5 5 4 3 3 4 1 1 4 4 4 3 1 3 2 3 2 2 2 3 1 1 1 0 0 1 2 2 1 3 4 5 4 5 5 5 3 4 5 6 7 10 5 6 7 7 8 8 7 6 5 6 6 7 7 9 7 7 6 6 7 8 8 8 8 8 9 9 8 8 8 8 9 9 9 10 10 10 9
10 9 9 7 5 7 6 5 6 5 3 2 4 4 5 5 3 2 1 4 6 4 4 4 4 4 1 1 2 2 2 1 0 0 1 2 2 3 4 5 6 4 1 0 2 4 5 5 9 9 4 6 7 6 7 7 6 7 9 7 7 6 7 8 6 7 6 6 6 7 8 9 9 9 8 9 11 11 10 10 10 10 12 12 12 10 8
8 6 4 3 4 4 4 2 5 5 5 6 6 4 3 2 1 3 4 4 1 1 3 3 2 3 3 3 4 4 3 2 1 0 2 4 4 4 5 4 3 3 3 3 3 5 6 9 10 4 5 6 6 7 7 8 7 8 7 6 6 6 5 7 7 6 6 7 8 10 10 10 10 10 11 11 10 9 10 10 9 10 11 12 12 8 9
6 4 6 6 6 5 3 4 3 3 3 3 2 1 3 3 3 3 2 0 0 0 1 1 1 2 3 3 3 4 5 2 2 4 5 5 6 4 3 4 5 5 6 4 5 5 7 9 7 4 6 7 8 8 9 9 8 8 7 7 7 7 7 7 8 8 8 9 10 10 9 9 9 11 10 9 9 9 11 11 9 11 14 10 10 9 10
3 2 3 6 5 5 6 5 5 6 5 5 5 5 6 4 3 1 1 0 1 0 1 1 1 1 2 2 3 3 3 4 4 4 5 4 3 2 2 3 4 4 7 7 7 9 9 7 4 4 5 7 8 8 9 10 9 8 8 8 8 7 7 6 8 10 10 9 7 7 9 10 10 8 8 7 8 9 11 10 10 10 15 15 11 9 10
4 4 3 3 4 4 5 5 5 6 7 7 5 3 1 1 1 1 2 3 2 2 1 1 1 2 2 2 2 3 4 5 4 4 4 3 1 1 2 3 3 4 6 10 9 9 7 5 4 6 5 5 6 7 8 9 8 8 7 7 7 7 7 8 8 7 7 7 9 9 9 9 9 8 8 8 7 8 10 10 10 9 14 12 9 11 11
3 3 3 3 2 2 1 1 1 1 1 1 0 1 1 1 2 1 0 0 0 1 0 0 1 2 4 4 3 2 2 3 3 3 3 2 0 1 2 2 2 5 3 8 4 1 4 4 7 9 7 5 6 7 7 10 7 6 6 7 7 7 8 8 9 9 9 9 9 9 9 8 9 9 9 10 10 10 10 10 10 8 10 11 10 10 10
2 1 2 3 3 5 5 2 0 3 3 5 3 3 3 2 3 3 3 3 4 4 1 1 2 1 0 1 0 2 3 1 2 3 3 3 2 2 3 4 6 3 5 8 2 1 1 3 7 6 5 5 5 5 7 12 10 7 6 7 7 7 7 8 8 8 9 9 8 8 9 12 14 14 12 11 12 11 11 11 10 11 11 11 12 11 11
2 4 5 4 4 5 5 4 5 5 3 4 3 5 5 3 2 4 5 4 4 4 4 3 2 1 2 2 4 3 3 3 3 3 3 3 1 3 8 6 6 6 6 1 1 1 1 2 3 4 5 5 5 4 7 10 12 8 7 6 7 7 7 7 8 8 8 7 7 9 10 10 11 14 12 12 13 11 9 11 11 10 12 13 14 14 13
2 4 3 4 5 3 5 6 7 7 6 6 5 4 5 4 4 4 3 4 5 5 4 4 3 2 2 2 3 3 3 4 3 2 3 2 0 3 7 9 7 8 8 9 6 3 3 5 4 4 4 4 4 5 5 8 10 7 7 7 7 7 8 8 8 8 9 8 10 10 10 11 11 10 11 10 10 11 10 10 11 9 13 10 5 8 9
2 3 3 6 5 5 4 5 6 5 5 7 6 4 5 5 3 4 4 4 4 4 5 4 3 2 2 2 3 4 4 5 4 6 2 0 1 2 4 9 3 2 1 3 2 2 2 3 3 3 4 4 4 5 4 8 8 7 7 7 7 7 7 8 9 9 9 10 10 10 11 10 10 10 10 11 11 10 10 10 10 9 10 15 9 11 11
3 3 5 6 6 5 4 3 3 5 6 5 4 4 5 4 4 3 1 1 2 3 4 4 4 1 1 2 2 3 3 4 6 5 3 4 5 3 6 6 1 2 5 5 3 1 1 2 3 4 4 4 4 7 8 6 6 6 7 7 7 7 8 8 9 9 8 8 9 10 9 10 11 11 11 11 11 11 12 11 9 10 10 11 10 12 12
5 5 5 5 5 5 5 5 5 4 5 4 5 4 3 3 3 3 3 3 4 3 4 4 4 4 4 4 4 4 3 4 4 6 5 5 9 8 8 5 0 3 6 5 2 1 3 3 3 4 5 5 5 7 8 6 5 6 7 7 8 8 8 8 8 8 8 9 9 9 10 11 11 11 11 11 11 10 10 11 11 10 11 12 10 10 9
4 6 5 5 5 3 4 5 3 3 3 4 5 4 4 5 5 5 4 4 4 4 4 4 4 4 5 4 4 5 4 5 5 5 6 8 2 5 5 2 4 5 8 5 3 3 4 4 3 6 7 8 8 8 6 5 6 6 6 7 7 7 8 8 8 8 9 10 10 10 10 11 11 11 11 11 10 11 9 10 11 10 8 9 10 9 9
6 5 5 6 4 4 5 4 3 2 1 2 2 4 5 5 4 3 4 4 4 4 3 3 4 4 4 4 4 3 5 5 5 3 4 7 8 2 4 5 7 7 8 8 5 4 4 5 6 7 7 8 8 9 6 5 6 6 6 7 7 7 8 8 9 9 9 9 10 10 9 10 11 10 10 11 10 11 11 10 11 11 11 9 11 11 11
6 4 3 5 7 4 2 1 2 2 2 3 2 3 4 5 5 4 4 4 4 3 2 3 3 4 3 4 4 5 5 5 6 5 6 5 5 5 6 8 7 7 9 9 5 7 6 7 9 8 8 9 9 7 6 6 6 6 6 7 7 8 8 8 8 9 8 9 9 9 9 9 9 10 10 10 11 10 10 9 8 10 12 11 11 11 11
4 4 5 4 2 2 4 2 1 2 2 2 4 3 5 6 6 5 5 4 3 4 4 3 3 4 3 2 2 5 7 7 4 2 1 2 5 5 6 8 8 9 8 7 7 6 6 7 7 9 9 9 9 6 6 6 6 7 7 7 7 7 8 8 8 8 8 8 9 9 9 9 8 9 8 10 10 9 9 9 10 10 11 9 9 8 9
3 3 2 3 2 4 3 4 5 6 5 3 1 3 4 4 6 5 4 3 5 4 4 3 3 4 3 3 3 3 2 1 7 6 3 4 6 7 6 7 8 10 11 7 8 6 9 10 10 10 10 10 7 6 6 6 6 6 7 7 7 7 8 8 8 7 8 8 8 8 8 8 8 8 9 10 10 9 9 9 10 10 10 11 10 9 10
2 2 1 3 3 6 5 4 4 4 2 1 1 3 2 3 5 4 3 4 7 5 4 4 5 5 4 3 2 2 3 2 3 6 4 7 8 8 8 7 10 10 9 7 6 6 7 9 9 9 10 8 6 5 5 6 6 6 7 7 7 7 7 7 7 7 7 8 8 8 8 9 9 9 11 9 8 9 8 9 10 9 11 8 8 6 8
3 2 4 5 4 4 3 3 2 1 1 2 2 3 3 3 4 5 4 5 4 4 3 3 3 4 5 5 4 3 2 2 3 4 5 5 5 6 7 7 7 8 7 7 6 6 6 9 8 8 7 5 5 5 5 6 6 6 6 7 7 6 7 7 7 9 9 7 8 8 8 8 8 8 8 8 7 8 8 8 8 7 10 8 6 7 7
7 6 5 5 3 2 1 1 2 2 1 2 2 3 1 2 2 5 5 6 5 6 6 4 2 3 3 3 5 4 3 3 3 4 5 6 5 6 6 6 6 6 7 6 6 7 6 5 5 6 5 5 5 5 5 5 5 6 6 6 6 6 6 6 6 7 7 7 7 7 7 6 7 8 8 8 8 8 8 7 8 9 10 9 8 9 8
3 3 4 3 3 4 3 2 1 0 0 0 1 1 1 1 2 4 4 4 4 5 5 7 7 3 3 4 5 4 4 3 5 5 5 6 5 5 6 6 6 6 6 5 6 5 5 6 5 6 6 5 5 5 5 6 6 5 5 4 5 5 5 4 4 5 6 6 6 6 6 6 6 6 6 7 7 7 7 8 9 10 9 10 7 6 7
Wind_Direction
176 135 156 156 170 192 185 178 189 190 196 189 202 222 207 157 207 232 121 183 212 216 224 219 225 209 206 214 222 223 233 64 19 34 187 215 223 230 228 230 229 222 219 216 215 213 212 205 208 208 199 191 170 156 153 156 153 161 155 150 151 151 147 149 149 141 137 138 136 135 138 136 133 135 136 134 131 130 128 127 123 125 127 126 121 111 101
145 152 166 174 170 181 153 193 200 202 197 206 212 219 212 216 232 238 246 237 226 196 212 225 242 238 233 284 56 323 276 31 159 175 213 234 236 229 232 235 229 225 224 217 216 210 209 207 203 199 194 192 185 174 171 170 166 164 153 157 150 151 152 149 143 143 140 137 138 136 137 136 137 138 136 135 134 133 132 129 126 125 120 115 114 118 116
213 86 72 209 189 158 187 211 208 208 212 216 214 215 219 228 253 254 282 283 270 212 190 223 248 252 7 330 297 262 239 192 191 197 228 237 240 238 239 242 235 227 222 221 215 212 213 205 202 196 193 185 178 179 177 174 173 164 157 152 155 155 154 150 149 146 144 147 146 147 143 137 141 141 141 141 138 135 133 133 130 129 123 117 116 117 117
243 256 134 138 74 42 185 219 221 220 215 218 220 224 222 217 236 219 245 257 252 148 194 211 228 148 219 241 245 247 244 229 214 216 238 242 245 243 241 239 235 227 223 218 216 217 213 207 200 196 191 184 176 188 179 178 170 160 162 164 162 166 158 154 156 156 155 153 151 149 148 152 150 148 144 143 143 142 139 135 133 126 118 119 119 120 113
223 280 121 125 99 91 313 253 226 215 209 211 203 221 216 218 214 199 225 241 116 197 180 180 213 207 217 226 235 253 259 231 209 219 228 235 238 240 239 234 226 222 220 218 217 220 214 207 205 205 184 175 192 185 179 176 157 168 172 169 165 162 160 159 164 165 161 159 156 157 161 155 151 150 151 148 148 148 147 143 132 125 127 121 119 117 114
192 131 133 103 123 206 233 244 164 167 198 189 190 225 222 227 184 224 226 236 202 130 163 186 212 205 216 210 227 215 216 229 220 229 233 234 237 242 245 237 228 229 225 227 224 219 215 214 210 188 186 193 191 174 166 160 168 171 166 170 167 166 164 169 168 167 165 163 163 162 157 155 155 157 156 156 152 144 136 135 129 124 121 117 118 115 117
167 188 112 133 207 228 237 356 199 182 182 174 203 219 215 217 217 233 246 240 176 190 196 203 208 207 224 235 226 238 231 221 219 215 220 229 233 239 242 247 240 232 226 227 231 223 220 207 180 166 189 181 148 154 164 168 173 167 173 166 171 170 171 172 170 167 166 166 164 161 158 158 158 159 155 146 145 148 144 142 140 137 135 125 119 119 121
65 105 161 168 223 236 330 275 358 201 171 198 202 242 247 248 230 227 237 238 232 233 233 244 234 207 234 274 254 248 265 222 223 226 231 229 225 232 233 229 236 226 221 220 217 224 172 142 180 181 179 159 158 165 152 166 169 177 172 173 172 168 175 176 174 171 166 164 161 159 159 159 159 157 154 154 148 145 128 114 105 110 102 111 123 123 124
151 194 184 225 340 339 268 220 218 146 156 133 166 218 248 227 219 212 231 238 231 245 249 227 236 193 344 277 272 254 250 252 233 226 235 232 233 229 241 227 237 237 240 241 229 160 164 175 166 183 163 159 157 151 162 170 167 171 171 179 179 177 179 178 178 175 171 166 165 165 164 162 162 159 155 148 142 144 131 133 131 125 127 119 124 122 117
129 124 193 329 270 253 242 204 190 159 165 159 160 176 263 224 220 213 222 232 219 237 245 236 232 116 322 272 265 229 233 239 243 226 240 256 257 246 243 249 242 232 219 196 180 172 168 180 181 164 163 160 158 162 172 170 171 177 178 187 183 182 185 182 179 176 175 171 168 167 167 168 162 157 149 142 152 159 146 145 136 136 131 117 109 108 111
76 128 164 203 210 238 126 163 167 179 158 139 125 83 259 224 187 202 198 220 218 225 234 235 110 146 248 259 257 238 230 239 222 233 235 234 243 251 251 248 254 237 215 187 176 164 166 180 185 165 160 162 163 176 177 179 181 182 190 189 186 187 184 176 174 174 171 169 169 167 168 166 161 157 159 155 147 135 130 124 126 129 127 118 112 96 95
185 172 181 221 219 239 233 186 183 173 136 116 100 43 253 164 185 181 183 205 215 222 229 136 148 184 243 259 256 227 233 224 224 211 234 243 250 260 273 263 235 222 170 121 148 173 188 196 166 164 161 168 177 177 183 173 183 194 198 195 183 170 163 164 163 161 164 166 168 169 165 151 148 148 135 132 140 131 123 123 126 123 118 116 113 105 98
180 175 238 329 285 253 229 206 163 139 146 119 132 211 230 219 183 182 172 203 209 209 181 151 193 217 215 229 246 264 272 278 272 255 256 260 266 269 284 270 215 164 185 182 188 196 198 169 163 166 165 167 183 183 175 179 198 203 190 169 165 167 160 159 163 166 164 169 167 164 158 152 142 135 141 140 133 131 129 123 118 117 117 116 109 104 97
181 191 197 226 256 236 185 280 149 157 114 193 208 210 197 139 193 193 183 191 212 188 185 188 206 228 227 245 5 265 261 210 249 276 288 310 303 311 281 246 186 184 185 213 211 193 158 160 164 165 168 178 180 177 178 200 207 176 156 164 158 157 163 165 162 162 162 158 157 153 147 144 141 135 120 121 129 131 130 131 128 122 123 118 114 108 98
46 63 201 288 257 244 142 120 110 302 171 220 176 163 211 194 157 169 209 193 215 163 203 207 210 232 255 230 226 234 244 248 258 266 273 259 243 249 242 216 232 168 180 194 194 177 155 159 163 170 171 180 184 181 199 207 157 142 149 145 147 147 146 150 154 152 150 151 149 145 144 141 135 131 130 127 129 132 134 132 131 131 131 131 125 121 116
175 182 189 205 223 107 158 142 174 201 201 197 154 129 177 213 172 170 181 224 206 185 184 198 218 226 237 270 230 238 256 248 264 264 253 251 261 262 261 242 215 181 184 172 165 157 159 163 166 169 175 179 184 192 208 132 131 127 131 133 132 136 141 142 138 140 141 137 132 136 140 138 134 136 139 136 135 143 144 141 141 137 141 139 138 140 138
160 194 210 220 172 163 186 174 170 179 195 166 185 151 164 163 234 207 164 207 212 190 194 198 195 208 216 230 215 183 231 222 226 234 239 229 229 217 220 231 204 182 181 176 162 160 172 170 175 177 182 182 184 199 185 139 149 149 143 142 144 147 149 149 148 146 139 144 148 147 153 151 147 146 141 147 140 151 144 146 148 149 157 160 160 153 140
295 311 239 80 356 223 207 275 221 182 188 197 165 172 155 213 173 167 184 213 208 197 195 174 222 215 216 206 236 230 244 223 237 243 266 264 242 232 196 177 175 176 142 145 157 171 188 186 180 182 188 184 191 190 140 152 147 146 147 148 154 157 155 156 156 152 147 148 150 153 154 161 159 157 155 157 152 153 155 153 155 153 158 159 146 140 147
164 243 227 185 202 174 204 216 236 320 250 196 169 188 192 189 174 192 220 197 198 183 162 190 199 220 209 211 230 213 223 228 227 218 229 246 212 201 211 227 163 149 154 168 183 183 189 200 185 183 184 189 170 139 157 149 149 148 152 156 155 159 162 160 157 160 160 159 155 153 151 143 139 150 157 151 151 155 161 159 159 157 159 160 147 158 161
179 225 227 187 198 189 211 203 203 235 227 208 204 199 149 180 192 199 197 137 138 137 177 199 197 223 201 194 232 213 215 221 212 215 218 221 210 228 192 192 177 176 186 191 193 193 200 195 183 176 178 172 151 149 150 154 149 150 156 164 165 168 166 163 166 168 166 160 157 156 162 161 157 160 172 172 166 170 170 169 160 166 159 169 180 170 163
247 345 5 50 75 80 243 246 238 231 207 202 212 189 131 140 139 161 148 207 187 183 218 157 184 206 227 215 220 216 220 213 218 224 210 196 193 174 166 192 185 195 196 198 200 195 202 178 172 173 177 160 155 155 154 152 154 155 162 162 158 157 159 160 166 169 165 165 163 158 156 161 163 164 174 177 175 156 99 140 178 166 171 181 184 182 170
215 215 210 138 140 221 245 223 209 216 211 180 191 141 169 196 177 175 165 222 35 165 18 188 176 204 249 229 198 231 246 220 162 161 174 182 184 203 204 178 203 217 215 207 198 201 193 167 171 173 169 158 163 158 153 157 159 161 159 155 155 166 166 170 169 166 168 167 166 165 165 164 154 122 71 113 130 162 155 174 178 195 170 178 179 166 165
219 225 192 181 205 215 226 209 204 179 144 147 164 191 201 204 183 169 156 155 76 52 39 86 129 96 51 286 151 266 294 279 212 180 158 168 192 207 190 186 229 222 229 224 212 208 191 161 179 176 170 172 168 168 164 164 166 164 157 161 168 170 174 184 181 177 172 171 174 171 171 167 160 149 139 147 155 157 162 160 154 151 163 157 158 161 160
237 240 180 185 182 198 216 214 176 167 165 159 166 128 106 148 152 139 130 147 154 181 24 48 158 164 144 163 153 206 270 277 204 183 187 184 186 177 175 209 228 231 250 225 211 210 182 186 188 187 178 186 179 172 170 168 169 165 171 170 178 184 184 182 178 183 181 176 170 170 171 168 164 159 156 140 139 163 166 167 166 170 170 163 164 168 174
219 195 141 136 115 95 64 89 85 114 143 146 144 159 159 134 137 152 126 117 97 121 111 83 54 161 151 160 171 186 221 281 219 184 141 137 132 153 191 216 230 215 221 219 215 183 174 186 190 190 191 196 184 177 177 176 173 173 181 183 183 183 183 181 181 180 178 179 181 177 169 171 178 172 165 165 154 149 169 181 185 181 173 171 172 175 176
123 102 90 88 94 96 137 89 51 86 131 129 106 93 111 131 141 114 106 117 108 98 106 106 69 25 142 144 169 187 136 335 149 123 127 141 157 169 208 217 225 226 228 207 202 192 189 191 192 190 204 201 195 194 185 184 184 187 188 192 190 182 183 182 179 184 187 187 184 186 185 180 176 176 180 177 170 158 151 154 166 174 180 182 181 181 183
96 125 112 75 60 85 252 147 180 180 155 127 119 126 130 123 117 110 118 104 122 117 113 128 130 128 71 87 121 121 161 122 91 118 148 175 201 220 223 215 205 204 198 193 200 200 186 181 182 198 218 215 201 197 194 189 189 192 193 190 185 184 179 180 190 192 191 189 190 184 181 186 185 183 183 180 167 167 170 173 175 175 172 177 186 184 181
115 12 50 143 179 184 201 188 112 122 119 124 127 122 133 122 108 105 96 92 72 40 55 90 108 97 82 78 113 81 71 102 156 180 213 230 239 237 218 192 187 182 183 189 203 173 153 158 190 212 234 211 183 188 190 190 194 197 195 191 188 188 186 187 192 198 195 196 191 188 188 192 191 184 175 173 180 186 182 172 160 152 147 161 143 178 164
28 10 14 89 116 115 100 98 93 101 88 54 74 101 117 95 89 104 120 117 140 34 61 38 65 84 125 199 128 137 121 116 222 239 235 252 253 213 154 135 128 141 156 179 187 168 171 185 200 216 230 193 182 185 185 188 195 197 195 196 193 196 194 196 194 191 193 194 199 196 189 182 178 178 173 177 170 165 169 171 160 155 156 148 128 166 161
42 27 80 86 109 120 112 117 134 134 126 125 115 102 79 117 121 154 168 187 168 172 234 190 18 310 100 197 190 165 183 212 221 240 252 249 206 145 125 112 90 74 69 248 220 184 191 204 210 224 225 183 183 179 185 192 206 208 207 203 204 201 201 188 184 185 185 194 194 178 185 186 187 181 175 175 176 173 174 176 168 160 158 164 169 170 172
77 76 85 93 95 97 126 137 120 122 124 113 113 116 98 109 129 150 193 214 208 232 231 181 194 236 240 231 206 172 156 138 187 239 257 260 191 162 153 161 163 221 223 234 205 196 204 219 223 234 213 171 179 183 183 193 199 202 212 216 220 216 200 188 189 190 190 186 184 185 191 187 190 182 184 179 176 177 180 176 170 170 168 169 177 181 184
92 76 74 63 77 98 91 99 119 130 147 151 138 165 166 150 163 220 193 181 216 197 168 153 194 217 199 112 133 134 138 126 106 320 290 281 249 208 197 205 229 258 342 60 171 186 208 221 237 238 170 174 179 179 181 191 189 200 212 208 208 212 206 194 193 195 187 193 188 191 196 187 194 189 184 186 189 187 179 173 179 178 177 179 181 183 173
95 81 56 58 58 68 88 111 144 161 165 177 204 201 190 222 227 202 203 196 145 126 157 196 130 113 139 145 131 130 126 122 109 65 286 267 251 232 221 222 238 262 269 235 202 204 202 219 237 201 166 174 171 177 185 191 196 207 213 203 212 202 198 202 195 188 191 193 200 203 197 199 196 191 198 195 191 182 179 183 178 182 185 182 178 171 168
139 163 181 184 162 166 176 223 211 205 227 243 243 250 251 235 216 223 235 114 86 227 290 19 103 141 141 135 134 133 133 124 249 255 244 248 249 234 207 207 221 233 247 243 233 227 227 230 230 189 168 163 176 178 188 191 200 206 204 201 202 203 202 202 191 197 201 208 210 205 201 198 198 200 200 193 185 184 186 182 184 182 171 182 178 176 176
140 131 150 181 184 176 174 175 185 204 208 223 243 235 233 232 219 231 46 44 235 185 150 151 183 147 125 126 145 148 164 206 237 239 253 245 264 229 184 205 237 261 267 257 241 244 236 238 223 181 164 178 180 185 186 194 197 201 203 201 204 206 205 197 201 206 209 213 203 202 206 203 207 201 197 192 192 193 188 189 186 184 178 164 165 165 174
115 122 111 137 178 180 179 191 193 194 195 208 225 239 255 226 205 220 239 237 192 181 174 182 160 130 157 162 186 197 217 232 240 254 266 287 330 133 153 209 226 264 277 286 257 240 247 232 213 187 175 179 187 196 193 195 200 203 203 200 205 208 206 208 209 211 213 208 209 210 209 205 197 195 193 193 192 186 190 196 198 197 183 170 173 164 172
192 185 172 132 103 111 95 81 99 109 160 174 152 160 221 218 199 225 174 18 28 6 33 122 127 170 216 222 223 247 251 250 258 263 296 4 56 142 200 233 229 248 277 285 296 113 201 200 194 188 185 186 193 198 197 190 198 200 203 210 214 212 212 211 211 211 214 210 210 207 201 194 198 202 197 196 194 192 193 196 197 194 188 187 184 178 179
66 80 78 91 104 101 104 106 142 136 124 89 62 72 57 62 40 73 72 56 33 3 0 166 199 228 323 25 252 236 255 248 256 267 279 279 245 245 269 231 251 201 238 250 226 96 140 187 179 184 197 202 204 201 193 192 196 193 200 207 212 214 217 220 219 219 216 213 208 203 203 205 194 179 190 196 194 195 197 197 193 191 187 187 180 182 182
58 59 68 77 80 95 104 64 53 43 46 119 117 69 35 47 49 59 69 57 28 12 44 26 20 30 352 338 300 315 330 299 290 283 289 276 234 208 251 246 242 232 245 271 60 27 158 145 164 184 202 213 206 196 186 191 196 198 202 203 208 214 217 219 220 223 223 217 207 210 209 211 211 210 207 207 203 205 204 200 195 193 182 172 175 177 164
77 74 87 89 88 100 85 74 61 63 39 34 80 69 355 28 27 59 67 49 18 24 29 26 43 5 328 321 302 310 326 344 332 315 282 280 276 279 294 285 267 255 263 272 272 251 197 187 180 198 212 212 199 194 190 189 194 201 202 206 213 217 221 221 221 223 221 214 220 220 216 217 215 210 213 210 205 207 204 198 198 196 176 167 177 174 184
86 100 73 81 78 62 81 83 74 61 61 57 58 50 32 33 2 52 37 20 344 12 29 45 56 19 350 321 310 296 313 314 317 289 271 115 271 265 270 279 331 356 315 273 258 248 218 200 195 212 234 206 206 194 189 191 193 202 206 209 214 217 222 222 225 224 221 216 218 216 218 219 218 216 212 210 211 208 202 200 200 201 190 168 180 187 184
26 80 84 75 61 61 58 79 109 73 44 48 43 41 31 20 57 80 54 26 16 20 28 25 46 45 315 324 320 318 325 310 314 310 249 212 239 224 255 280 350 24 12 6 342 332 229 240 234 236 235 216 210 206 199 192 198 201 208 212 216 219 224 225 228 232 230 227 225 224 221 217 217 219 213 210 210 205 201 197 201 188 173 191 197 187 172
26 58 72 80 66 49 45 54 63 96 80 41 39 26 18 33 48 46 44 45 44 29 29 19 14 14 17 11 2 350 322 336 353 336 318 269 243 233 239 265 234 332 351 343 326 302 259 250 245 250 238 226 220 216 207 205 201 207 214 217 219 222 226 228 231 231 228 229 228 227 224 223 222 221 216 214 211 204 198 202 201 192 188 179 176 178 193
47 53 57 72 64 50 55 57 51 48 50 15 16 14 38 45 45 44 35 21 17 20 22 14 9 5 2 5 4 348 337 347 334 327 327 307 287 271 275 287 340 353 353 347 328 300 286 264 261 252 256 243 238 220 211 211 211 215 219 220 223 225 227 232 232 230 229 230 230 228 224 226 226 226 220 213 199 191 201 201 190 193 191 173 177 176 175
54 49 58 65 65 56 51 49 59 48 355 335 352 34 44 37 25 33 36 29 14 359 12 16 6 356 351 352 332 305 296 289 281 289 321 312 324 358 26 38 6 347 334 322 311 293 284 275 263 258 253 249 242 230 221 216 217 221 222 224 227 228 232 232 234 234 233 234 232 231 228 226 226 224 220 215 202 202 205 200 197 195 190 183 180 181 187
56 43 41 58 48 41 357 344 319 337 349 27 69 68 43 32 16 1 13 15 357 334 335 340 330 320 319 314 305 291 282 274 260 232 229 234 264 311 356 357 336 338 324 319 309 305 290 288 280 272 262 254 246 238 229 226 224 226 226 227 228 230 233 235 236 236 237 237 235 232 230 228 223 221 214 210 205 203 204 199 196 196 190 183 179 183 173
42 49 48 60 25 345 340 340 319 24 21 40 23 340 355 3 355 347 335 339 317 299 306 304 290 283 272 251 274 330 336 329 307 268 244 341 358 353 334 336 327 326 325 321 302 294 286 288 287 280 271 260 250 241 235 230 228 227 228 229 230 231 235 236 234 237 237 238 236 235 233 228 222 217 210 207 205 203 198 194 193 188 183 193 193 189 190
51 60 33 59 51 358 29 45 54 53 53 64 330 315 316 337 339 329 325 347 350 336 326 320 313 299 292 273 246 219 210 285 326 311 108 35 334 331 328 329 318 315 312 307 304 295 293 287 280 278 274 268 259 247 241 235 235 234 234 235 235 236 237 237 239 236 237 237 235 230 227 221 217 210 204 202 204 199 196 196 192 182 173 179 181 173 167
39 31 27 87 67 54 55 50 53 50 12 319 22 313 315 333 319 326 331 352 353 351 343 325 318 309 307 283 266 250 245 220 212 263 322 351 322 321 315 314 317 319 316 311 310 308 301 295 289 279 275 269 261 255 246 241 238 238 239 238 240 241 240 241 243 238 237 237 232 228 224 219 215 201 189 193 186 187 196 183 171 186 173 184 174 191 198
353 29 38 21 21 24 41 48 37 312 280 323 314 304 322 339 359 328 338 342 324 309 309 296 290 296 302 309 316 302 261 264 279 276 288 295 300 299 304 307 306 308 306 302 304 305 307 304 298 292 279 270 263 259 254 250 243 243 242 244 243 244 241 243 245 242 240 238 233 227 220 215 211 204 200 201 199 197 197 182 178 191 187 189 189 195 197
356 3 353 344 340 322 268 228 264 297 309 294 301 308 338 9 327 312 331 317 334 338 331 326 314 291 307 317 310 312 316 314 301 302 310 310 311 308 308 309 311 310 311 308 307 304 306 304 297 290 286 276 271 266 261 257 254 251 247 245 245 246 250 243 239 240 238 235 232 226 220 213 210 205 203 200 195 192 192 190 187 177 172 174 177 152 172
308 296 296 317 320 313 314 299 283 217 261 300 307 316 337 315 332 317 305 309 338 333 320 330 328 304 318 322 315 311 310 314 313 315 311 310 309 307 308 313 320 321 322 321 310 307 312 316 317 308 301 290 280 273 272 267 265 260 261 254 252 250 249 245 244 242 245 238 233 229 221 217 211 209 210 200 197 196 195 179 167 173 189 182 182 192 182